TimePDT,TemperatureF,Dew PointF,Humidity,Sea Level PressureIn,VisibilityMPH,Wind Direction,Wind SpeedMPH,Gust SpeedMPH,PrecipitationIn,Events,Conditions,WindDirDegrees,DateUTC
12:53 AM,25.0,23.0,92,30.34,10.0,Calm,Calm,-,N/A,,Clear,0,2012-10-18 07:53:00
1:53 AM,24.1,23.0,96,30.35,10.0,Calm,Calm,-,N/A,,Clear,0,2012-10-18 08:53:00
2:53 AM,25.0,23.0,92,30.35,10.0,Calm,Calm,-,N/A,,Clear,0,2012-10-18 09:53:00
3:53 AM,24.1,23.0,96,30.34,10.0,Calm,Calm,-,N/A,,Clear,0,2012-10-18 10:53:00
4:53 AM,23.0,21.9,96,30.34,10.0,Calm,Calm,-,N/A,,Clear,0,2012-10-18 11:53:00
5:53 AM,23.0,21.9,96,30.37,10.0,SW,3.5,-,N/A,,Clear,230,2012-10-18 12:53:00
6:53 AM,21.0,19.9,96,30.39,9.0,Calm,Calm,-,N/A,,Clear,0,2012-10-18 13:53:00
7:53 AM,24.1,23.0,96,30.38,10.0,Calm,Calm,-,N/A,,Clear,0,2012-10-18 14:53:00
8:53 AM,33.1,28.9,85,30.37,10.0,Calm,Calm,-,N/A,,Clear,0,2012-10-18 15:53:00
9:53 AM,42.1,30.9,65,30.35,10.0,Calm,Calm,-,N/A,,Clear,0,2012-10-18 16:53:00
10:53 AM,48.0,30.9,52,30.32,10.0,Calm,Calm,-,N/A,,Clear,0,2012-10-18 17:53:00
11:53 AM,55.0,32.0,42,30.30,10.0,Calm,Calm,-,N/A,,Clear,0,2012-10-18 18:53:00
12:53 PM,60.1,30.9,33,30.25,10.0,East,11.5,16.1,N/A,,Clear,90,2012-10-18 19:53:00
1:53 PM,62.1,30.0,30,30.21,10.0,East,12.7,-,N/A,,Clear,100,2012-10-18 20:53:00
2:53 PM,63.0,30.0,29,30.18,10.0,East,17.3,-,N/A,,Clear,100,2012-10-18 21:53:00
3:53 PM,62.1,30.0,30,30.16,10.0,East,18.4,-,N/A,,Clear,100,2012-10-18 22:53:00
4:53 PM,59.0,30.0,33,30.15,10.0,East,19.6,26.5,N/A,,Clear,100,2012-10-18 23:53:00
5:53 PM,54.0,28.0,37,30.14,10.0,ESE,13.8,20.7,N/A,,Clear,110,2012-10-19 00:53:00
6:53 PM,51.1,27.0,39,30.14,10.0,ESE,10.4,19.6,N/A,,Clear,120,2012-10-19 01:53:00
8:53 PM,46.9,24.1,41,30.11,10.0,East,9.2,-,N/A,,Clear,100,2012-10-19 03:53:00
9:53 PM,46.0,26.1,46,30.09,10.0,East,10.4,-,N/A,,Clear,90,2012-10-19 04:53:00
10:53 PM,48.0,26.1,42,30.06,10.0,East,12.7,-,N/A,,Clear,90,2012-10-19 05:53:00
11:53 PM,48.9,26.1,41,30.05,10.0,East,11.5,-,N/A,,Clear,100,2012-10-19 06:53:00